Zurück zum Katalog

IRIDIUM 33 DEB

AktivPO
NORAD 35848·DEBRIS·🇺🇸 United States

Gestartet Sep 14, 1997 von Baikonur Cosmodrome

Loading…

Nächste Überflüge (nächste 24 Stunden)

TLE

AlterndSource: Space-Track

Epoche: Sep 10, 2026, 07:11 UTC

1 35848U 97051SY  26253.29983433  .00007421  00000-0  87687-3 0  9992
2 35848  86.3825 253.2904 0006330 359.5367   0.5850 14.84530287707124

Verfolge IRIDIUM 33 DEB in Echtzeit mit AllMySat

Download on the App Store